FENGYUN 1C DEB, 31515

Orbit data source: Space-Track

FENGYUN 1C DEB, 31515 is space debris in SSO originally from a launch on Mon, 10 May 1999 UTC launched from the Taiyaun Space Center, China (TSC). Fengyun 1C debris stems from the Chinese weather satellite Fengyun-1C, which was intentionally destroyed by a Chinese anti-satellite missile in 2007. This event dramatically increased the amount of space debris, with thousands of trackable fragments posing hazards to satellites and human spaceflight. The Fengyun 1C debris cloud has become a focal point in discussions about space sustainability and the need for international regulations to prevent the creation of new debris.

Loading next visibility...
Identifier
31515, 1999-025BXE
Orbit
SSO
Country
Flag of CNCN / PRC
Related business
Manufacturer
Unknown
Mission
Spacecraft
Bus & Motor
Unknown
Mass
Unknown
Launch date (UTC)
1999-05-10 (27 years ago)
Launch vehicle
Unknown
Launch site
Taiyaun Space Center, China (TSC)
Object type
Payload
Rocket body
Debris
Shape & HBR
Unknown shape, 0.1 m
Radar Cross Section
Medium (>0.1 m² and <1 m²)

Expand to show TLE details & history
Last TLE update: 1 day ago

TLE from 1 day ago
0 FENGYUN 1C DEB
1 31515U 99025BXE 26255.07902699  .00000826  00000-0  47459-3 0  9990
2 31515  98.8896 343.9396 0054873  93.3065 267.4385 14.11300192622181
Epoch: 2026-09-12T01:53Z
TLE epoch observation values (Epoch: 2026-09-12T01:53:47.931Z)
Latitude
-0.00011°
Longitude
-35.60328°
Altitude
859.814 km
Speed
7.422 km/s
True Right ascension
22h 55m 45s
True Declination
0° 00' 00"
Sunlit
Object was in full shadow at epoch
Visualization orbit readout
Latitude
Unknown
Longitude
Unknown
Altitude
Unknown
Speed
Unknown
Apparent Right ascension
Unknown
Apparent Declination
Unknown
Sunlit
N/A
Visualization observer readout
Local Sidereal Time
01:50:09
Azimuth
Unknown
Elevation
Unknown
Doppler factor
Unknown
Orbital elements
Apogee altitude
891.779 km
Perigee altitude
812.43 km
Semi-major axis
7,230.242 km
Eccentricity
0.00549
Inclination
98.8896°
RAAN
343.9396°
Arg. of periapsis
93.3065°
True anomaly
266.81054°
Mean anomaly
267.4385°
Eccentric anomaly
267.1245°
Mean motion
3.53032 °/min
Orbital period
101.97 mins
BSTAR
0.00047459
Loading maneuver chart data...
Computing Atmospheric mass density...
Loading historical data...
Loading historical data...
Loading historical data...
Loading historical data...
Loading historical data...
Loading historical data...
Loading historical data...

Documentation

Showing up to 5 results
|